Tracking 29892 objects as of 21-Nov-2024
HD Live streaming from Space Station
objects crossing your sky now

SL-16 DEB

Track SL-16 DEB now!
10-day predictions


NORAD ID: 22400
Int'l Code: 1992-093CR
Perigee: 828.3 km
Apogee: 1,054.8 km
Inclination: 71.2 °
Period: 103.7 minutes
Semi major axis: 7312 km
RCS: 0.0099 m2 (small)
Launch date: December 25, 1992
Source: Commonwealth of Independent States (former USSR) (CIS)
Launch site: TYURATAM MISSILE AND SPACE COMPLEX (TTMTR)

Note: This is SATELLITE DEBRIS
Your satellite tracking list
Your tracking list is empty




NASA's NSSDC Master Catalog

Two Line Element Set (TLE):
1 22400U 92093CR  24325.24300781  .00000641  00000-0  51790-3 0  9998
2 22400  71.2401 242.1150 0154908  52.5615  99.4860 13.88349583613357
Source of the keplerian elements: AFSPC